Tracking 23762 objects as of 20-Oct-2021
HD Live streaming from Space Station
objects crossing your sky now

COSMOS 2491 DEB

Track COSMOS 2491 DEB now!
10-day predictions


NORAD ID: 44998
Int'l Code: 2013-076T
Perigee: 1,353.2 km
Apogee: 1,501.9 km
Inclination: 82.5 °
Period: 114.2 minutes
Semi major axis: 7798 km
RCS: Unknown
Launch date: December 25, 2013
Source: Commonwealth of Independent States (former USSR) (CIS)
Launch site: PLESETSK MISSILE AND SPACE COMPLEX (PKMTR)

Note: This is SATELLITE DEBRIS
aabbcc
Your satellite tracking list
Your tracking list is empty




NASA's NSSDC Master Catalog

Two Line Element Set (TLE):
1 44998U 13076S   21292.88377551  .00001131  00000-0  62966-2 0  9998
2 44998  82.4658 135.4520 0095303  46.9001 314.0013 12.60615811 82383
Source of the keplerian elements: AFSPC